カタログに戻る

SARA

運用中アマチュア無線SSO
NORAD 21578·PAYLOAD·🇫🇷 France

打ち上げ Jul 17, 1991 から Guiana Space Centre

Loading…

次のパス (今後24時間)

TLE

最新Source: Space-Track

元期: Sep 14, 2026, 15:07 UTC

1 21578U 91050E   26257.62993823  .00000508  00000-0  11714-3 0  9992
2 21578  98.0867 303.9390 0001434 218.6389 303.2629 14.59244726859358

AllMySatでSARAをリアルタイム追跡

Download on the App Store